Regional Weather Roundup
Issued by NWS

Home | Current Version | Previous Version | Graphics & Text | Print | Product List | Glossary On
Versions: 1 2 3 4 5 6 7 8 9 10 11 12 13 14 15 16 17 18 19 20 21 22 23 24 25 26 27 28 29 30 31 32 33 34 35 36 37 38 39 40 41 42 43 44 45 46 47 48 49 50
762
ASUS44 KJAN 181310
RWRMS

MISSISSIPPI HOURLY WEATHER ROUNDUP
NATIONAL WEATHER SERVICE JACKSON MS
700 AM CST THU DEC 18 2014

NOTE: "FAIR: INDICATES FEW OR NO CLOUDS BELOW 12,000 FEET WITH NO
SIGNIFICANT WEATHER AND/OR OBSTRUCTIONS TO VISIBILITY.

MSZ001>002-007>008-010>013-018>021-025>028-034>036-181400-
NORTHWEST MISSISSIPPI

CITY           SKY/WX    TMP DP  RH WIND       PRES   REMARKS
CLARKSDALE     CLOUDY    39  39 100 CALM      30.24R
CLEVELAND      DRIZZLE   41  41 100 CALM      30.23S
GREENWOOD      CLOUDY    42  42 100 NE5       30.21R
GREENVILLE     LGT RAIN  42  40  92 NE8       30.22R FOG
GRENADA        CLOUDY    41  36  81 CALM      30.23R
OLIVE BRANCH   CLOUDY    36  36 100 CALM      30.23R FOG
OXFORD         MOCLDY    37  34  87 E8        30.22S FOG     WCI  31
TUNICA         PTSUNNY   39  36  87 CALM      30.24S
$$

MSZ003>006-009-014>017-022>024-029>033-037>039-181400-
NORTHEAST MISSISSIPPI

CITY           SKY/WX    TMP DP  RH WIND       PRES   REMARKS
COLUMBUS AFB   CLOUDY    41  34  77 E5        30.22F
CORINTH        CLOUDY    39  36  87 CALM      30.22S
GOLDN TRIANGLE CLOUDY    41  34  75 E7        30.20F
STARKVILLE     CLOUDY    41  36  81 CALM      30.22S
TUPELO         CLOUDY    40  35  83 SE5       30.21S
$$

MSZ040-058-181400-
CENTRAL MISSISSIPPI

CITY           SKY/WX    TMP DP  RH WIND       PRES   REMARKS
JACKSON INTL   CLOUDY    45  39  79 E7        30.19F
JACKSON HAWKNS CLOUDY    45  38  76 E9        30.18F
MERIDIAN KEY   CLOUDY    42  37  82 NE6       30.23R
MERIDIAN NAS   CLOUDY    40  37  89 CALM      30.23S
RAYMOND        CLOUDY    46  41  81 E7        30.19R
VICKSBURG      CLOUDY    47  41  80 E9        30.17F
$$

MSZ059>079-181400-
SOUTH MISSISSIPPI

CITY           SKY/WX    TMP DP  RH WIND       PRES   REMARKS
HATTIESBURG    CLOUDY    44  41  89 CALM      30.22R
MCCOMB         MOCLDY    47  40  76 NE6       30.17S
NATCHEZ        CLOUDY    48  41  76 S3        30.16F
PINE BELT      CLOUDY    45  37  76 CALM      30.22R
$$

MSZ080>082-181400-
COASTAL MISSISSIPPI

CITY           SKY/WX    TMP DP  RH WIND       PRES   REMARKS
BAY ST LOUIS   PTCLDY    45  39  81 VRB3      30.20
BILOXI         PTCLDY    44  41  87 NE6       30.21R
PASCAGOULA     CLEAR     39  37  92 CALM      30.20R
GULFPORT       PTCLDY    43  40  89 N3        30.20R
$$



USA.gov is the U.S. government's official web portal to all federal, state and local government web resources and services.